Regional Weather Roundup
Issued by NWS

Home | Current Version | Previous Version | Graphics & Text | Print | Product List | Glossary On
Versions: 1 2 3 4 5 6 7 8 9 10 11 12 13 14 15 16 17 18 19 20 21 22 23 24 25 26 27 28 29 30 31 32 33 34 35 36 37 38 39 40 41 42 43 44 45 46 47 48 49 50
159
ASUS43 KLSX 311910
RWRMO

WEATHER SUMMARY FOR MISSOURI
NATIONAL WEATHER SERVICE SPRINGFIELD MO
200 PM CDT WED AUG 31 2016

NOTE: "FAIR" INDICATES FEW OR NO CLOUDS BELOW 12,000 FEET WITH NO
       SIGNIFICANT WEATHER AND/OR OBSTRUCTIONS TO VISIBILITY.
       CURRENT SKY AND/OR WEATHER CONDITIONS ARE NOT AVAILABLE FOR
       CHILLICOTHE AND FARMINGTON.

MOZ001>031-035>038-043-044-053-054-312000-
...NORTHERN AND WESTERN MISSOURI...

CITY           SKY/WX    TMP DP  RH WIND       PRES   REMARKS
KANSAS CTY INT CLOUDY    78  69  73 N7        30.12F
KANSAS C DTWN  CLOUDY    79  70  74 N8        30.10F
LEE`S SUMMIT   PTSUNNY   76  71  85 CALM      30.11F
ST JOSEPH      CLOUDY    79  67  66 NE6       30.12F
CHILLICOTHE      N/A     82  68  62 N3        30.11F
KIRKSVILLE     MOSUNNY   80  65  59 NE12      30.12F

$$
MOZ066>068-077>081-088>096-101>105-312000-
...SOUTHWEST MISSOURI...

CITY           SKY/WX    TMP DP  RH WIND       PRES   REMARKS
SPRINGFIELD    MOSUNNY   79  70  74 E5        30.07F
JOPLIN         MOSUNNY   83  71  67 N3        30.06F
BRANSON        CLOUDY    79  73  83 CALM      30.08F

$$
MOZ032>034-039>042-045>050-055>058-069>072-312000-
...CENTRAL MISSOURI...

CITY           SKY/WX    TMP DP  RH WIND       PRES   REMARKS
COLUMBIA       LGT RAIN  78  72  81 NW6       30.09F
JEFFERSON CITY CLOUDY    75  72  90 CALM      30.07F
ROLLA          LGT RAIN  77  71  82 NW7       30.08F
SEDALIA        PTSUNNY   82  70  66 E6        30.11F
WHITEMAN AFB   PTSUNNY   79  76  90 NW7       30.09F
OSAGE BEACH    RAIN      69  69 100 CALM      30.10F

$$
MOZ051-052-059>065-312000-
...EAST CENTRAL MISSOURI...

CITY           SKY/WX    TMP DP  RH WIND       PRES   REMARKS
ST LOUIS INTL  CLOUDY    84  71  65 NW9       30.04F
SPIRIT OF STL  CLOUDY    82  73  74 NW10      30.03F
ST CHARLES     LGT RAIN  80  76  87 W9        30.03F

$$
MOZ072>076-082>087-097>100-106>115-312000-
...SOUTH CENTRAL AND SOUTHEAST MISSOURI...

CITY           SKY/WX    TMP DP  RH WIND       PRES   REMARKS
CAPE GIRARDEAU MOSUNNY   87  69  54 N9        29.99  HX  91
FARMINGTON     MOSUNNY   83  69  62 N5        30.05F
POPLAR BLUFF   MOSUNNY   89  73  59 N9        29.99F HX  97
WEST PLAINS    CLOUDY    82  70  66 NW9       30.09F

$$




USA.gov is the U.S. government's official web portal to all federal, state and local government web resources and services.